Location: Observatoire
(46.1952°N, 5.3391°E)
Time: 07:31:12
(UTC+02:00)

UWE-3 - Visible Passes

Search period start: 16 April 2024 00:00
Search period end: 26 April 2024 00:00
Orbit: 569 x 657 km, 97.8° (Epoch: 15 April)

Date Brightness Start Highest point End Pass type
(mag) Time Alt. Az. Time Alt. Az. Time Alt. Az.
16 Apr ? 03:04:21 10° ENE 03:06:34 14° E 03:06:34 14° E visible
16 Apr ? 04:38:50 10° N 04:42:56 58° WNW 04:43:36 51° WSW visible
17 Apr ? 03:18:44 10° NE 03:21:51 20° E 03:21:58 20° E visible
17 Apr ? 04:54:04 10° N 04:58:00 40° WNW 04:59:00 34° WSW visible
18 Apr ? 03:33:25 10° NE 03:37:04 28° E 03:37:22 28° ESE visible
18 Apr ? 05:09:23 10° N 05:13:01 29° WNW 05:14:23 24° W visible
19 Apr ? 03:48:14 10° NNE 03:52:14 40° E 03:52:44 38° ESE visible
19 Apr ? 05:24:47 10° NNW 05:27:59 21° WNW 05:29:45 17° W visible
20 Apr ? 04:03:10 10° NNE 04:07:20 59° E 04:08:05 50° SE visible
20 Apr ? 05:40:21 10° NNW 05:42:54 16° WNW 05:45:06 11° W visible
21 Apr ? 04:18:09 10° NNE 04:22:24 85° E 04:23:25 52° S visible
21 Apr ? 05:56:19 10° NW 05:57:46 12° WNW 05:59:14 10° W visible
22 Apr ? 02:59:06 10° ENE 03:01:02 13° E 03:01:43 12° E visible
22 Apr ? 04:33:13 10° N 04:37:25 67° WNW 04:38:44 42° SW visible
23 Apr ? 03:13:14 10° NE 03:16:12 18° E 03:17:01 17° ESE visible
23 Apr ? 04:48:19 10° N 04:52:24 47° WNW 04:54:02 31° SW visible
24 Apr ? 03:27:45 10° NE 03:31:20 25° E 03:32:18 23° ESE visible
24 Apr ? 05:03:30 10° N 05:07:19 33° WNW 05:09:19 22° WSW visible
25 Apr ? 03:42:26 10° NNE 03:46:24 36° E 03:47:34 30° SE visible
25 Apr ? 05:18:45 10° NNW 05:22:13 24° WNW 05:24:35 16° WSW visible
